When you browse on this site, cookies collect data to enhance your experience and personalize the content and advertising you see.
Visit our Privacy Policy to learn more. By continuing to use the site, you agree to this use of cookies and data.
  • In Schweiz
  • Länderverzeichnis
  • Für 7 Tage
  • Wassertemperatur
  • Wetterkarte
  • Widgets
  • user-avatar
    Anmelden

    Stündliche Wetter Narichino

    Heute, 13 Dezember, Freitag

    Zeit Temperatur Niederschläge Wind Luftdruck Luftfeuchtigkeit
    00:00 -1°C° 0 mm 5 m/S 746 mmHg 94%
    01:00 -1°C° 0 mm 5 m/S 746 mmHg 94%
    02:00 -1°C° 0 mm 4 m/S 745 mmHg 91%
    03:00 -1°C° 0 mm 4 m/S 745 mmHg 91%
    04:00 -1°C° 0 mm 4 m/S 745 mmHg 91%
    05:00 -1°C° 0 mm 4 m/S 744 mmHg 90%
    06:00 -2°C° 0.1 mm 4 m/S 744 mmHg 92%
    07:00 -2°C° 0.1 mm 4 m/S 744 mmHg 93%
    08:00 -2°C° 0 mm 4 m/S 744 mmHg 93%
    09:00 -2°C° 0 mm 5 m/S 744 mmHg 92%
    10:00 -2°C° 0 mm 5 m/S 743 mmHg 91%
    11:00 -1°C° 0 mm 5 m/S 743 mmHg 90%
    12:00 -1°C° 0.1 mm 5 m/S 743 mmHg 90%
    13:00 -2°C° 0.1 mm 5 m/S 742 mmHg 91%
    14:00 -2°C° 0.1 mm 5 m/S 742 mmHg 91%
    15:00 -2°C° 0 mm 5 m/S 742 mmHg 91%
    16:00 -2°C° 0 mm 5 m/S 741 mmHg 91%
    17:00 -3°C° 0 mm 4 m/S 741 mmHg 91%
    18:00 -2°C° 0 mm 5 m/S 741 mmHg 90%
    19:00 -2°C° 0 mm 5 m/S 741 mmHg 89%
    20:00 -2°C° 0 mm 5 m/S 741 mmHg 89%
    21:00 -2°C° 0 mm 5 m/S 741 mmHg 87%
    22:00 -2°C° 0 mm 5 m/S 741 mmHg 86%
    23:00 -1°C° 0 mm 5 m/S 741 mmHg 85%

    Morgen, 14 Dezember, Samstag

    Zeit Temperatur Niederschläge Wind Luftdruck Luftfeuchtigkeit
    00:00 -1°C° 0 mm 5 m/S 741 mmHg 85%
    01:00 -2°C° 0 mm 5 m/S 741 mmHg 85%
    02:00 -2°C° 0 mm 5 m/S 742 mmHg 84%
    03:00 -2°C° 0 mm 5 m/S 741 mmHg 84%
    04:00 -3°C° 0 mm 6 m/S 741 mmHg 84%
    05:00 -3°C° 0 mm 6 m/S 741 mmHg 84%
    06:00 -2°C° 0 mm 5 m/S 741 mmHg 84%
    07:00 -2°C° 0 mm 5 m/S 741 mmHg 85%
    08:00 -2°C° 0 mm 5 m/S 742 mmHg 86%
    09:00 -2°C° 0 mm 5 m/S 742 mmHg 85%
    10:00 -2°C° 0 mm 5 m/S 742 mmHg 84%
    11:00 -2°C° 0 mm 5 m/S 741 mmHg 84%
    12:00 -2°C° 0 mm 5 m/S 741 mmHg 83%
    13:00 -2°C° 0 mm 5 m/S 741 mmHg 83%
    14:00 -1°C° 0 mm 5 m/S 741 mmHg 83%
    15:00 -1°C° 0 mm 5 m/S 741 mmHg 85%
    16:00 -1°C° 0 mm 5 m/S 741 mmHg 86%
    17:00 -2°C° 0 mm 4 m/S 741 mmHg 88%
    18:00 -2°C° 0 mm 4 m/S 741 mmHg 89%
    19:00 -2°C° 0 mm 4 m/S 741 mmHg 91%
    20:00 -2°C° 0 mm 4 m/S 741 mmHg 92%
    21:00 -1°C° 0 mm 4 m/S 741 mmHg 93%
    22:00 -1°C° 0 mm 4 m/S 740 mmHg 93%
    23:00 -1°C° 0 mm 4 m/S 740 mmHg 93%

    übermorgen, 15 Dezember, Sonntag

    Zeit Temperatur Niederschläge Wind Luftdruck Luftfeuchtigkeit
    00:00 -1°C° 0 mm 5 m/S 740 mmHg 94%
    01:00 0°C° 0 mm 5 m/S 740 mmHg 94%
    02:00 0°C° 0 mm 5 m/S 740 mmHg 95%
    03:00 0°C° 0.2 mm 5 m/S 739 mmHg 95%
    04:00 0°C° 0.2 mm 5 m/S 738 mmHg 95%
    05:00 +1°C° 0.2 mm 5 m/S 738 mmHg 96%
    06:00 +1°C° 0.2 mm 5 m/S 738 mmHg 95%
    07:00 +1°C° 0.2 mm 5 m/S 738 mmHg 95%
    08:00 +2°C° 0.2 mm 5 m/S 738 mmHg 95%
    09:00 +2°C° 0.5 mm 5 m/S 738 mmHg 95%
    10:00 +2°C° 0.5 mm 5 m/S 737 mmHg 95%
    11:00 +2°C° 0.5 mm 5 m/S 737 mmHg 95%
    12:00 +2°C° 0.1 mm 5 m/S 738 mmHg 92%
    13:00 +1°C° 0.1 mm 4 m/S 738 mmHg 88%
    14:00 +1°C° 0.1 mm 4 m/S 739 mmHg 85%
    15:00 0°C° 0 mm 4 m/S 739 mmHg 86%
    16:00 0°C° 0 mm 4 m/S 740 mmHg 87%
    17:00 -1°C° 0 mm 4 m/S 741 mmHg 87%
    18:00 -1°C° 0 mm 4 m/S 741 mmHg 89%
    19:00 -2°C° 0 mm 4 m/S 742 mmHg 90%
    20:00 -2°C° 0 mm 4 m/S 742 mmHg 91%
    21:00 -1°C° 0 mm 4 m/S 742 mmHg 90%
    22:00 -1°C° 0 mm 4 m/S 742 mmHg 90%
    23:00 -1°C° 0 mm 5 m/S 742 mmHg 89%

    16 Dezember, Montag

    Zeit Temperatur Niederschläge Wind Luftdruck Luftfeuchtigkeit
    00:00 -1°C° 0.1 mm 5 m/S 742 mmHg 91%
    01:00 -1°C° 0.1 mm 5 m/S 742 mmHg 94%
    02:00 0°C° 0.1 mm 5 m/S 742 mmHg 96%
    03:00 0°C° 0.1 mm 5 m/S 742 mmHg 95%
    04:00 +1°C° 0.1 mm 5 m/S 742 mmHg 93%
    05:00 +1°C° 0.1 mm 5 m/S 742 mmHg 91%
    06:00 +1°C° 0 mm 4 m/S 743 mmHg 92%
    07:00 0°C° 0 mm 4 m/S 743 mmHg 93%
    08:00 -1°C° 0 mm 4 m/S 743 mmHg 94%
    09:00 0°C° 0 mm 4 m/S 744 mmHg 92%
    10:00 0°C° 0 mm 4 m/S 744 mmHg 90%
    11:00 0°C° 0 mm 4 m/S 745 mmHg 88%
    12:00 0°C° 0 mm 4 m/S 745 mmHg 89%
    13:00 0°C° 0 mm 4 m/S 745 mmHg 90%
    14:00 0°C° 0 mm 4 m/S 745 mmHg 91%
    15:00 +1°C° 0 mm 3 m/S 746 mmHg 91%
    16:00 0°C° 0 mm 3 m/S 746 mmHg 90%
    17:00 -1°C° 0 mm 3 m/S 746 mmHg 90%
    18:00 0°C° 0 mm 3 m/S 746 mmHg 91%
    19:00 0°C° 0 mm 3 m/S 747 mmHg 92%
    20:00 0°C° 0 mm 3 m/S 747 mmHg 92%
    21:00 0°C° 0 mm 3 m/S 747 mmHg 93%
    22:00 0°C° 0 mm 3 m/S 747 mmHg 93%
    23:00 0°C° 0 mm 3 m/S 747 mmHg 93%

    17 Dezember, Dienstag

    Zeit Temperatur Niederschläge Wind Luftdruck Luftfeuchtigkeit
    00:00 0°C° 0 mm 3 m/S 747 mmHg 94%
    01:00 0°C° 0 mm 3 m/S 747 mmHg 94%
    02:00 +1°C° 0 mm 2 m/S 748 mmHg 94%
    03:00 +1°C° 0 mm 2 m/S 748 mmHg 94%
    04:00 +1°C° 0 mm 2 m/S 748 mmHg 94%
    05:00 +1°C° 0 mm 2 m/S 748 mmHg 94%
    06:00 +1°C° 0 mm 2 m/S 748 mmHg 95%
    07:00 +1°C° 0 mm 2 m/S 748 mmHg 95%
    08:00 +1°C° 0 mm 2 m/S 748 mmHg 95%
    09:00 0°C° 0 mm 3 m/S 748 mmHg 93%
    10:00 +1°C° 0 mm 3 m/S 748 mmHg 92%
    11:00 +2°C° 0 mm 3 m/S 748 mmHg 91%
    12:00 +2°C° 0 mm 3 m/S 747 mmHg 91%
    13:00 +1°C° 0 mm 4 m/S 747 mmHg 92%
    14:00 +1°C° 0 mm 4 m/S 746 mmHg 92%
    15:00 +1°C° 0 mm 4 m/S 746 mmHg 92%
    16:00 +1°C° 0 mm 4 m/S 746 mmHg 91%
    17:00 +1°C° 0 mm 4 m/S 746 mmHg 91%
    18:00 0°C° 0 mm 4 m/S 746 mmHg 91%
    19:00 0°C° 0 mm 4 m/S 746 mmHg 91%
    20:00 0°C° 0 mm 4 m/S 746 mmHg 92%
    21:00 0°C° 0 mm 4 m/S 746 mmHg 91%
    22:00 0°C° 0 mm 4 m/S 746 mmHg 91%
    23:00 -1°C° 0 mm 4 m/S 746 mmHg 91%

    18 Dezember, Mittwoch

    Zeit Temperatur Niederschläge Wind Luftdruck Luftfeuchtigkeit
    00:00 -1°C° 0 mm 4 m/S 746 mmHg 91%
    01:00 0°C° 0 mm 3 m/S 746 mmHg 91%
    02:00 0°C° 0 mm 3 m/S 745 mmHg 91%
    03:00 0°C° 0 mm 3 m/S 745 mmHg 92%
    04:00 0°C° 0 mm 3 m/S 745 mmHg 92%
    05:00 0°C° 0 mm 3 m/S 745 mmHg 92%
    06:00 0°C° 0 mm 3 m/S 744 mmHg 93%
    07:00 0°C° 0 mm 3 m/S 744 mmHg 93%
    08:00 -1°C° 0 mm 4 m/S 744 mmHg 94%
    09:00 -1°C° 0 mm 4 m/S 744 mmHg 93%
    10:00 0°C° 0 mm 4 m/S 744 mmHg 93%
    11:00 0°C° 0 mm 4 m/S 744 mmHg 93%
    12:00 0°C° 0 mm 4 m/S 743 mmHg 93%
    13:00 0°C° 0 mm 4 m/S 743 mmHg 93%
    14:00 +1°C° 0 mm 3 m/S 742 mmHg 93%
    15:00 +1°C° 0 mm 3 m/S 742 mmHg 94%
    16:00 +1°C° 0 mm 3 m/S 742 mmHg 94%
    17:00 0°C° 0 mm 4 m/S 742 mmHg 95%
    18:00 +1°C° 0 mm 3 m/S 742 mmHg 96%
    19:00 +1°C° 0 mm 3 m/S 742 mmHg 97%
    20:00 +2°C° 0 mm 3 m/S 742 mmHg 97%
    21:00 +2°C° 0 mm 3 m/S 742 mmHg 97%
    22:00 +2°C° 0 mm 3 m/S 742 mmHg 97%
    23:00 +3°C° 0 mm 3 m/S 743 mmHg 97%
    Mehr zeigen